Find Starlink 5289

NORAD ID: 55278 Int'l Des: 2023-010 Owner: SPXS Country: US Constellation: starlink operational
LEOCIRCULAR

Live-Position

3D-Globus wird geladen...

Über Starlink 5289

Beschreibung wird geladen...

Nächste Überflüge

Passes for default location (London). Set your location on the main map for personalized predictions.

Höhenverlauf

Loading altitude history...

Zweizeiliger Elementsatz

1 55278U 23010K 26126.81101178 -.00000599 00000-0 -42452-4 0 9993
2 55278 69.9998 257.8378 0003058 268.7534 91.3275 14.98325726181486
Epoch: 6. Mai 2026 • Age: 17 hours

Aktueller Status

Höhe 594.1 km
Geschwindigkeit 7.56 km/s
Subsatellitenpunkt -64.60°S, 149.56°E
Startdatum 19. Jan. 2023
Alter 3.2 years
Typ internet

Technische Details

Klassifizierung Payload
Masse 305.00 kg
Trockenmasse 290.00 kg
Gesamtmasse 305.00 kg
Länge 0.20 m
Durchmesser 2.80 m
Spannweite 9.00 m
Form Box + pan
Hersteller SPXS
Bus-Typ Starlink
Phasenstatus In Orbit
Besitzer/Staat SPXS/US

Most Searched